Location: Unspecified
(0.0000°N, 0.0000°E)
Time: 10:09:38
(UTC+00:00)

DOVE 4 - Pass Details

Date: 15 December 2017
Orbit: 588 x 804 km, 97.7° (Epoch: 17 January)

Event Time Altitude Azimuth Distance (km) Brightness Sun altitude
Rises 04:44:20 0° 6° (N) 2,849 ? -16.2°
Reaches altitude 10° 04:46:31 10° 4° (N) 1,930 ? -15.7°
Maximum altitude 04:50:39 66° 282° (WNW) 643 ? -14.8°
Drops below altitude 10° 04:54:44 10° 199° (SSW) 1,913 ? -13.8°
Sets 04:56:54 0° 196° (SSW) 2,820 ? -13.3°
